Meteo Giornale » Osservazioni meteo Olanda » L9-Ff-1 Sea
ore: 02:55 - Osservazioni Meteo L9-Ff-1 Sea
Lat. 53° 37' N Lon. 4° 58' E Alt. 50 metri s.l.m.
19 °C
Nuvoloso
Temp. 24 Ore
15 °C
19 °C
Ovest
29.6 Km/h
Dew point 15 °C
Umidità 77 %
Visibilità 10 Km
Il sole sorge alle ore 06:49
Il sole tramonta alle ore 20:30
| Data e Ora | Cielo e Fenomeni | T °C | DP °C | Um. % | Pres. hPa | Vis. km | Vento km/h | |
|---|---|---|---|---|---|---|---|---|
| Oggi h: 02:55 | Nuvoloso | 19 | 15 | 77 | 1015 | 10 | O 29.6 | |
| Oggi h: 02:25 | Nuvoloso | 19 | 15 | 77 | 1015 | 10 | O 27.8 | |
| Oggi h: 01:55 | Poco Nuvoloso | 19 | 14 | 72 | 1015 | 10 | O 25.9 | |
| Oggi h: 01:25 | Nuvoloso | 19 | 14 | 72 | 1015 | 10 | N 25.9 | |
| Oggi h: 00:55 | Nuvoloso | 19 | 14 | 72 | 1014 | 10 | N 35.2 | |
| Oggi h: 00:25 | Molto Nuvoloso | 18 | 14 | 77 | 1014 | 10 | N 38.8 | |
| Ieri h: 23:55 | Molto Nuvoloso | 18 | 14 | 77 | 1014 | 10 | N 42.6 | |
| Ieri h: 23:25 | Molto Nuvoloso | 18 | 14 | 77 | 1014 | 10 | N 44.4 | |
| Ieri h: 22:55 | Nuvoloso | 18 | 14 | 77 | 1014 | 10 | N 42.6 | |
| Ieri h: 22:25 | Nuvoloso | 18 | 14 | 77 | 1013 | 10 | N 37 | |
| Ieri h: 21:55 | Nuvoloso | 18 | 14 | 77 | 1013 | 10 | N 35.2 | |
| Ieri h: 21:25 | Molto Nuvoloso | 19 | 15 | 77 | 1013 | 10 | O 38.8 | |
| Ieri h: 20:55 | Molto Nuvoloso | 19 | 15 | 77 | 1012 | 10 | O 35.2 | |
| Ieri h: 20:25 | Nuvoloso | 19 | 15 | 77 | 1012 | 10 | N 38.8 | |
| Ieri h: 19:55 | Poco Nuvoloso | 18 | 15 | 82 | 1011 | 10 | N 44.4 | |
| Ieri h: 19:25 | Molto Nuvoloso | 18 | 15 | 82 | 1011 | 10 | N 46.3 | |
| Ieri h: 18:55 | Nuvoloso | 19 | 14 | 72 | 1010 | 10 | N 40.7 | |
| Ieri h: 18:25 | Nuvoloso | 18 | 14 | 77 | 1010 | 10 | N 44.4 | |
| Ieri h: 17:55 | Molto Nuvoloso | 18 | 15 | 82 | 1009 | 10 | O 48.1 | |
| Ieri h: 17:25 | Molto Nuvoloso | 18 | 14 | 77 | 1009 | 10 | O 31.5 | |
| Ieri h: 16:55 | Molto Nuvoloso | 18 | 14 | 77 | 1008 | 10 | O 33.3 | |
| Ieri h: 16:25 | Poco Nuvoloso | 18 | 14 | 77 | 1008 | 10 | O/SO 35.2 | |
| Ieri h: 15:55 | Pioggia | 17 | 14 | 82 | 1008 | 10 | O/SO 29.6 | |
| Ieri h: 15:25 | Pioggia | 16 | 13 | 82 | 1008 | 8 | O 33.3 | |
| Ieri h: 14:55 | Poco Nuvoloso | 17 | 14 | 82 | 1007 | 10 | O 33.3 | |
| Ieri h: 14:25 | Nuvoloso | 17 | 13 | 77 | 1007 | 10 | O/SO 37 | |
| Ieri h: 13:55 | Molto Nuvoloso | 17 | 14 | 82 | 1007 | 10 | SO 37 | |
| Ieri h: 13:25 | Poco Nuvoloso | 17 | 13 | 77 | 1007 | 10 | S/SO 38.8 | |
| Ieri h: 12:55 | Sereno | 17 | 12 | 72 | 1006 | 10 | S/SO 35.2 | |
| Ieri h: 12:25 | Pioggia | 17 | 11 | 67 | 1006 | 10 | S/SO 27.8 | |
| Ieri h: 11:55 | Pioggia | 16 | 13 | 82 | 1006 | 10 | S 20.3 | |
| Ieri h: 11:25 | Pioviggine | 16 | 13 | 82 | 1006 | 10 | S/SO 29.6 | |
| Ieri h: 10:55 | Pioggia | 15 | 12 | 82 | 1006 | 10 | S/SO 13 | |
| Ieri h: 10:25 | Pioggia | 15 | 12 | 82 | 1006 | 6 | SO 22.2 | |
| Ieri h: 09:55 | Temporale raffiche di vento | 15 | 13 | 87 | 1006 | 3 | S/SO 70.3 | |
| Ieri h: 09:25 | Poco Nuvoloso | 19 | 13 | 68 | 1005 | 10 | S/SO 33.3 | |
| Ieri h: 08:55 | Nuvoloso | 19 | 14 | 72 | 1005 | 10 | S/SO 38.8 | |
| Ieri h: 08:25 | Molto Nuvoloso | 19 | 14 | 72 | 1005 | 10 | S/SO 44.4 | |
| Ieri h: 07:55 | Molto Nuvoloso | 18 | 14 | 77 | 1006 | 10 | S 37 | |
| Ieri h: 07:25 | Poco Nuvoloso | 18 | 15 | 82 | 1006 | 10 | S 35.2 | |
| Ieri h: 06:55 | Pioggia | 18 | 15 | 82 | 1006 | 10 | S 38.8 | |
| Ieri h: 06:25 | Poco Nuvoloso | 18 | 14 | 77 | 1006 | 10 | S 27.8 | |
| Ieri h: 05:55 | Poco Nuvoloso | 18 | 13 | 72 | 1006 | 10 | S 31.5 | |
| Ieri h: 05:25 | Temporale | 18 | 15 | 82 | 1006 | 10 | S 50 | |
| Ieri h: 04:55 | Temporale | 19 | 16 | 82 | 1007 | 10 | S 38.8 | |
| Ieri h: 04:25 | Poco Nuvoloso | 18 | 15 | 82 | 1007 | 10 | S 38.8 | |
| Ieri h: 03:55 | Temporale | 18 | 15 | 82 | 1007 | 10 | S 38.8 | |



